Wind_Speed
33 32 30 30 29 27 26 25 24 25 24 22 22 22 21 20 21 21 21 20 20 20 20 20 20 21 21 22 22 22 23 23 25 26 27 28 29 30 30 31 32 32 32 33
35 33 32 31 29 27 26 25 25 26 24 23 22 21 21 20 20 21 20 20 19 20 20 20 20 21 22 22 23 23 24 25 27 28 29 29 30 30 30 30 31 31 31 32
35 33 33 32 29 27 26 25 25 25 24 23 24 22 21 20 20 21 20 20 19 19 19 19 20 21 22 23 24 25 26 27 28 29 30 30 31 31 31 31 32 32 33 33
35 33 32 31 29 28 26 25 24 24 24 23 24 23 20 19 20 20 20 19 19 19 20 20 21 22 23 24 25 26 28 29 30 31 32 32 32 32 32 32 33 34 35 36
35 33 31 30 28 27 25 24 24 24 24 24 22 25 21 18 19 20 20 20 20 20 21 21 22 23 24 26 27 29 30 31 32 33 33 33 33 33 34 35 35 36 37 38
34 33 30 29 28 28 26 25 25 25 25 24 21 25 23 18 19 20 21 20 21 21 22 23 24 25 26 28 29 31 32 33 34 34 35 35 35 36 36 37 38 39 40 41
31 32 30 29 29 28 26 25 25 25 25 24 22 24 23 19 19 20 21 21 22 22 23 24 26 27 29 30 31 32 33 34 35 36 36 36 37 38 38 39 40 41 42 44
32 31 31 29 28 27 26 25 25 25 24 25 21 21 20 20 21 21 22 22 23 24 25 26 28 29 31 32 33 34 35 36 37 37 38 38 39 40 41 41 42 44 45 46
31 32 30 29 28 28 26 24 23 25 24 24 23 22 19 20 22 24 24 24 25 26 27 28 30 31 32 34 35 36 37 38 39 39 39 40 41 42 42 43 45 46 48 49
31 32 29 28 27 26 25 24 24 25 24 24 23 23 21 18 23 25 26 26 27 28 29 30 31 33 34 36 37 38 38 39 40 41 41 42 43 44 45 46 47 49 51 52
31 31 29 27 26 25 25 24 24 25 24 25 24 24 23 21 23 26 28 29 29 29 30 32 34 35 36 38 39 40 40 41 41 42 42 43 44 46 47 49 50 52 53 55
29 29 28 27 26 26 26 24 24 25 25 25 26 26 25 25 26 28 29 30 31 32 33 34 35 37 38 40 40 41 42 42 43 43 44 45 47 48 50 51 53 54 56 57
28 28 27 27 26 27 25 23 24 25 26 27 27 27 26 27 28 30 31 32 33 34 35 36 38 39 40 41 42 43 43 44 45 45 47 48 49 51 52 53 55 56 58 60
28 27 26 26 27 26 24 24 25 27 27 27 27 27 28 30 31 32 32 33 34 36 37 39 40 41 42 43 44 45 45 46 47 48 49 50 51 53 54 55 57 59 61 63
28 27 26 27 28 26 25 25 26 27 27 28 27 28 28 33 34 34 35 35 36 38 40 41 42 42 43 44 45 46 47 48 49 50 51 52 53 55 56 58 60 62 64 65
29 28 28 28 29 29 29 27 27 27 27 29 30 29 30 33 35 36 38 38 39 40 41 43 44 44 45 46 47 48 49 50 51 51 53 54 55 57 58 60 62 64 66 68
31 30 30 30 30 31 31 27 28 28 29 31 32 31 32 34 35 37 39 40 41 42 43 44 45 47 48 48 49 49 50 50 51 53 54 56 57 59 61 63 64 66 68 70
32 31 33 32 32 34 29 28 29 30 30 32 33 34 35 36 38 39 40 42 43 44 45 46 47 48 49 49 49 49 50 51 53 54 56 58 59 61 63 65 66 68 70 72
34 34 35 35 35 34 31 30 30 32 32 32 34 36 38 39 40 41 42 43 45 46 46 47 48 48 48 48 49 50 51 53 54 56 58 59 61 63 65 66 68 70 72 75
35 35 36 36 36 35 33 32 33 34 35 33 35 37 39 40 41 41 43 44 45 46 46 47 48 48 49 49 50 51 53 54 55 57 59 61 63 65 66 68 70 73 75 78
34 35 36 36 37 36 35 35 35 36 36 37 37 38 39 40 41 42 43 44 45 46 47 47 48 49 49 50 51 52 54 55 57 59 60 62 64 66 68 70 73 76 78 80
33 35 36 37 39 37 35 36 37 37 38 39 40 40 41 41 42 43 44 45 45 46 47 47 48 49 50 51 52 53 55 57 59 60 62 64 66 68 70 73 76 79 81 82
34 34 36 37 38 37 38 38 38 40 41 41 42 42 42 43 43 44 45 45 45 46 47 48 48 49 50 52 53 55 57 58 60 61 63 65 67 70 73 76 78 81 82 82
36 35 36 37 37 38 39 39 41 42 42 42 43 43 43 44 45 45 45 45 45 47 48 48 49 50 51 53 54 56 58 60 61 63 65 67 70 72 75 78 80 82 81 80
37 37 36 36 37 38 38 39 41 42 43 44 43 43 44 44 45 45 45 46 47 47 48 49 50 51 52 54 55 57 59 61 63 65 67 70 72 75 77 79 81 81 79 76
36 36 36 36 37 39 40 40 41 43 43 43 43 44 44 45 45 45 47 47 48 48 49 50 51 52 53 55 56 59 61 63 65 68 70 72 75 77 80 81 80 77 74 70
Wind_Direction
239 241 243 246 248 249 253 258 263 267 268 267 269 271 274 274 274 275 273 273 274 275 277 278 280 281 283 285 287 289 291 291 291 292 292 292 293 293 292 291 291 290 290 290
240 241 242 245 246 248 252 257 261 264 266 268 269 271 273 274 274 274 274 274 275 276 278 280 282 283 285 288 290 292 293 293 294 294 294 294 294 294 293 293 292 291 291 291
243 242 242 243 244 247 251 255 258 262 264 267 270 271 273 274 273 273 273 274 275 277 279 282 283 285 287 290 292 293 294 295 296 295 295 295 295 294 294 293 292 292 292 291
241 241 241 241 243 247 250 254 258 261 264 266 270 272 270 273 273 272 273 274 276 278 281 283 284 287 289 292 294 294 295 295 296 296 296 296 296 295 294 293 292 292 292 292
239 239 241 241 243 246 249 253 257 260 263 266 271 273 272 269 271 271 273 275 278 280 282 284 285 288 291 293 294 295 295 295 296 296 296 295 295 294 294 293 292 292 292 292
239 239 240 241 241 244 247 251 255 259 262 265 268 273 274 271 269 271 274 276 279 281 283 285 287 290 292 294 295 295 295 295 296 296 296 294 294 294 293 293 292 292 292 292
238 239 238 239 241 243 247 250 254 256 260 264 264 269 275 277 272 272 274 278 280 283 284 286 289 291 293 294 295 295 295 295 295 296 295 293 293 293 292 292 292 292 292 293
237 236 236 237 241 242 244 247 251 255 258 264 265 267 275 278 276 276 277 279 282 284 286 288 290 292 293 294 294 294 295 295 295 295 294 293 293 293 292 292 292 293 293 293
238 238 236 237 239 241 241 245 249 254 259 265 269 269 268 275 278 280 281 282 284 285 287 289 291 293 294 295 294 294 294 295 295 295 294 293 293 293 293 293 293 293 294 294
236 240 238 239 239 240 241 243 247 253 259 262 265 270 270 270 276 280 283 284 286 287 289 290 292 294 295 295 295 295 295 295 295 294 294 293 293 293 293 293 294 294 295 295
233 238 238 237 238 240 241 244 249 253 258 263 267 269 274 277 278 280 283 286 287 289 290 292 293 294 295 296 296 295 295 295 295 295 294 294 294 294 294 295 295 296 297 297
231 235 237 235 237 240 242 244 248 253 258 261 266 269 276 279 280 281 283 286 288 289 291 292 294 295 296 296 296 296 296 296 296 295 295 295 295 295 296 296 297 298 298 299
229 232 236 237 237 240 243 245 250 254 259 264 269 275 277 278 279 281 284 286 288 290 291 292 294 295 296 296 296 296 296 296 296 296 296 296 296 297 297 298 299 299 300 301
230 233 236 241 242 241 244 248 252 256 261 266 269 274 278 279 280 282 285 287 289 290 291 293 294 295 296 296 296 296 296 296 296 296 297 297 298 298 299 299 300 301 302 302
232 235 236 240 247 249 249 251 254 259 264 268 271 273 278 281 284 286 286 287 289 290 292 293 294 295 295 295 295 295 295 296 296 297 297 298 299 300 300 301 302 302 303 304
235 237 238 241 247 252 254 255 259 263 267 271 273 276 278 281 285 287 289 290 291 291 292 293 293 294 295 295 295 295 296 296 297 297 298 299 299 300 301 302 303 303 304 305
238 241 243 245 248 252 255 260 264 267 270 272 275 278 279 281 284 286 288 290 291 292 292 293 293 294 295 295 295 296 296 296 297 298 298 299 300 301 302 303 304 305 305 306
239 243 247 249 252 255 262 263 266 268 270 273 277 279 281 283 284 286 287 288 290 291 291 293 294 294 295 295 295 296 296 297 297 298 299 300 301 302 303 304 305 306 307 308
242 245 249 253 257 261 263 267 270 271 272 275 278 280 282 284 285 286 287 288 289 290 291 292 294 295 295 295 295 296 297 297 298 299 300 301 302 303 304 305 307 308 309 310
245 248 252 256 261 264 268 270 272 274 275 276 278 280 282 284 286 287 287 288 289 291 292 293 294 295 295 295 295 296 297 298 299 300 301 302 304 305 306 307 308 309 310 311
248 252 256 260 264 267 272 275 277 278 280 279 280 282 284 286 287 288 288 290 290 291 292 293 294 294 295 295 296 297 298 299 300 301 302 304 305 306 308 309 310 311 312 312
249 253 257 261 265 271 275 276 277 279 280 281 283 286 287 287 288 289 290 291 292 292 293 294 295 295 295 296 297 298 299 300 301 303 304 306 307 308 310 311 312 313 313 314
254 256 259 262 266 270 273 275 277 279 281 282 285 287 288 288 289 290 291 292 292 293 294 294 295 295 296 297 298 299 300 301 303 304 306 307 309 310 311 312 313 314 314 314
256 257 260 263 266 269 272 275 277 278 281 283 285 287 288 290 291 291 291 292 293 294 295 295 296 296 297 298 299 300 302 303 305 306 308 309 310 311 312 313 314 315 315 314
258 260 262 264 267 269 271 274 276 279 281 283 285 287 289 291 291 291 291 293 294 295 295 296 297 298 298 299 301 302 303 305 306 308 309 310 311 312 313 314 315 315 315 314
259 262 264 265 266 269 271 273 276 278 281 283 285 287 289 290 291 291 292 294 295 296 296 297 298 299 300 301 302 303 305 306 308 309 310 311 312 313 314 315 315 315 314 313
Height
5802 5806 5808 5809 5811 5813 5814 5815 5815 5815 5816 5817 5817 5817 5817 5817 5817 5816 5816 5817 5817 5816 5816 5815 5814 5813 5813 5811 5810 5809 5808 5806 5804 5802 5800 5798 5796 5794 5791 5789 5787 5785 5782 5780
5796 5799 5801 5803 5805 5807 5808 5809 5810 5810 5810 5811 5811 5812 5812 5812 5811 5811 5811 5812 5811 5811 5811 5810 5809 5808 5807 5806 5805 5803 5802 5800 5798 5796 5794 5791 5789 5787 5784 5782 5780 5777 5775 5773
5788 5793 5794 5797 5799 5801 5802 5804 5804 5805 5805 5805 5806 5807 5807 5807 5806 5806 5806 5806 5806 5806 5806 5805 5804 5803 5802 5801 5799 5798 5796 5794 5792 5789 5787 5785 5782 5780 5777 5775 5773 5770 5768 5765
5781 5785 5788 5790 5793 5794 5796 5798 5799 5799 5799 5800 5801 5801 5803 5802 5801 5801 5801 5801 5801 5801 5801 5800 5799 5798 5797 5795 5794 5792 5790 5787 5785 5782 5780 5777 5775 5772 5770 5768 5765 5763 5760 5757
5775 5779 5781 5784 5787 5788 5791 5792 5793 5793 5793 5794 5795 5794 5797 5797 5797 5796 5796 5796 5796 5796 5795 5795 5794 5793 5791 5789 5788 5785 5783 5780 5778 5775 5773 5770 5767 5765 5762 5760 5757 5754 5752 5749
5769 5771 5776 5779 5781 5783 5785 5786 5787 5787 5787 5789 5790 5788 5790 5792 5792 5791 5791 5791 5791 5791 5790 5789 5788 5787 5785 5783 5781 5779 5776 5774 5771 5768 5765 5762 5760 5757 5754 5751 5749 5746 5743 5740
5762 5765 5769 5772 5775 5777 5779 5781 5782 5782 5782 5784 5785 5783 5785 5786 5786 5786 5786 5786 5785 5785 5784 5783 5782 5781 5779 5776 5774 5772 5769 5766 5763 5760 5757 5754 5751 5749 5746 5743 5740 5736 5733 5730
5755 5759 5762 5766 5769 5771 5773 5775 5777 5778 5777 5777 5778 5779 5781 5780 5779 5780 5780 5780 5780 5779 5778 5777 5776 5774 5772 5769 5767 5764 5761 5759 5755 5752 5749 5746 5743 5740 5736 5733 5730 5726 5723 5719
5750 5753 5757 5759 5762 5764 5767 5769 5771 5771 5772 5772 5773 5774 5776 5775 5773 5773 5774 5774 5773 5773 5772 5770 5769 5767 5764 5762 5759 5756 5753 5750 5747 5743 5740 5737 5734 5730 5727 5723 5720 5716 5712 5707
5743 5746 5750 5753 5756 5758 5762 5764 5765 5765 5766 5767 5769 5768 5770 5771 5769 5768 5767 5767 5767 5766 5765 5763 5761 5759 5756 5754 5751 5748 5745 5741 5738 5734 5731 5727 5724 5720 5716 5713 5709 5704 5700 5695
5738 5740 5744 5747 5751 5754 5756 5758 5759 5760 5761 5761 5762 5765 5764 5765 5764 5762 5761 5760 5759 5759 5757 5755 5753 5750 5748 5745 5742 5739 5735 5732 5728 5724 5721 5717 5713 5709 5705 5701 5696 5692 5687 5681
5731 5734 5737 5742 5745 5747 5749 5751 5753 5755 5755 5755 5756 5760 5758 5757 5756 5755 5754 5753 5752 5751 5749 5747 5745 5742 5739 5736 5733 5729 5725 5722 5718 5714 5710 5706 5702 5698 5693 5688 5683 5678 5673 5667
5725 5729 5732 5735 5740 5741 5743 5745 5746 5748 5748 5749 5750 5754 5751 5750 5749 5748 5747 5746 5744 5743 5741 5738 5735 5733 5730 5726 5722 5719 5715 5711 5707 5703 5699 5695 5690 5685 5681 5676 5670 5664 5659 5652
5721 5724 5728 5730 5730 5734 5737 5739 5740 5741 5742 5743 5744 5745 5743 5742 5741 5741 5740 5738 5736 5734 5731 5729 5726 5723 5720 5716 5712 5708 5704 5700 5696 5692 5687 5682 5678 5673 5667 5662 5656 5650 5643 5637
5715 5718 5721 5723 5725 5728 5730 5732 5734 5735 5736 5736 5738 5737 5736 5733 5732 5731 5731 5729 5727 5725 5722 5719 5716 5712 5709 5705 5701 5697 5693 5689 5684 5680 5675 5670 5665 5659 5654 5648 5642 5635 5628 5621
5709 5712 5715 5717 5719 5721 5722 5725 5727 5728 5729 5729 5729 5730 5729 5726 5725 5722 5720 5719 5717 5715 5712 5709 5705 5702 5698 5694 5690 5686 5681 5677 5672 5667 5662 5657 5651 5646 5640 5633 5627 5620 5612 5604
5702 5705 5708 5711 5712 5713 5716 5720 5720 5721 5721 5721 5720 5722 5720 5718 5717 5714 5712 5709 5707 5704 5701 5698 5694 5690 5686 5682 5678 5674 5669 5664 5660 5654 5649 5643 5638 5632 5625 5618 5611 5604 5596 5588
5696 5698 5700 5703 5705 5706 5713 5712 5713 5713 5713 5713 5712 5711 5710 5709 5707 5705 5702 5700 5697 5694 5690 5687 5683 5679 5675 5670 5666 5661 5657 5652 5647 5641 5636 5630 5624 5617 5610 5603 5595 5587 5579 5570
5689 5691 5693 5695 5696 5698 5703 5704 5704 5704 5705 5705 5703 5702 5700 5699 5697 5695 5692 5689 5686 5683 5679 5675 5671 5667 5663 5658 5654 5649 5644 5639 5634 5628 5622 5616 5609 5602 5595 5587 5579 5570 5561 5552
5681 5684 5686 5687 5688 5690 5695 5695 5695 5696 5696 5697 5694 5692 5690 5688 5687 5685 5681 5678 5675 5671 5668 5664 5659 5655 5651 5646 5642 5637 5632 5626 5621 5615 5608 5601 5594 5587 5579 5570 5562 5552 5543 5533
5674 5676 5678 5679 5679 5681 5685 5685 5685 5686 5687 5685 5683 5682 5680 5678 5676 5673 5670 5667 5663 5660 5656 5652 5648 5643 5639 5634 5629 5624 5619 5613 5607 5601 5594 5587 5579 5571 5562 5554 5545 5534 5524 5514
5667 5668 5669 5670 5670 5675 5676 5675 5675 5675 5674 5673 5671 5670 5668 5667 5664 5661 5658 5655 5651 5648 5644 5640 5635 5631 5626 5621 5617 5612 5606 5600 5593 5587 5580 5572 5563 5555 5545 5536 5526 5515 5504 5493
5657 5661 5662 5663 5665 5665 5665 5665 5664 5664 5663 5662 5660 5659 5657 5655 5652 5649 5646 5643 5639 5636 5632 5627 5623 5618 5613 5608 5603 5598 5592 5585 5579 5572 5564 5556 5548 5539 5528 5518 5508 5497 5484 5472
5648 5650 5652 5653 5654 5655 5655 5654 5654 5653 5652 5651 5649 5648 5646 5643 5640 5637 5634 5631 5627 5624 5619 5615 5610 5606 5601 5595 5590 5583 5577 5571 5564 5557 5549 5540 5532 5522 5512 5501 5489 5477 5464 5452
5639 5641 5642 5644 5645 5645 5645 5644 5643 5642 5641 5640 5638 5636 5634 5631 5628 5625 5622 5619 5615 5611 5607 5602 5598 5593 5588 5582 5576 5569 5563 5556 5549 5541 5533 5524 5515 5505 5495 5484 5471 5458 5446 5431
5630 5632 5633 5634 5635 5635 5635 5635 5633 5632 5630 5629 5627 5625 5622 5620 5617 5613 5610 5606 5602 5598 5594 5589 5585 5580 5574 5568 5562 5555 5548 5541 5533 5525 5517 5507 5497 5487 5476 5465 5455 5442 5428 5417